Location: Deer Lodge Site
(39.6809°N, 119.9392°W)
Time: 15:27:15
(UTC-07:00)

Amateur Radio Satellites - All Passes

Search period start: 26 September 2016 14:57
Search period end: 27 September 2016 14:57
Location: Deer Lodge Site, 39.6809°N, 119.9392°W

Satellite Date Start Highest point End Downlink Frequencies (MHz)
Time Altitude Azimuth
Gurwin Techsat 1B 26 Sep 14:59:56 15:04:44 34° 263° (W) 15:09:34 435.225
ITAMSAT 1 26 Sep 15:03:44 15:08:53 75° 74° (ENE) 15:14:04 435.822/435.867
SO-50 26 Sep 15:12:03 15:16:14 30° 113° (ESE) 15:20:25 436.795
ITUPSAT 1 26 Sep 15:29:35 15:34:24 69° 102° (ESE) 15:39:11 437.325
SWISSCUBE 26 Sep 15:43:34 15:48:23 76° 285° (WNW) 15:53:09 437.505
PHONESAT 2.4 26 Sep 15:47:27 15:50:23 57° 197° (SSW) 15:53:18 2401.200-2431.200
BEESAT 26 Sep 15:56:47 16:01:31 62° 287° (WNW) 16:06:15 436.000
AO-7 26 Sep 15:57:30 16:05:49 77° 253° (WSW) 16:14:11 29.400- 29.500
Cosmos 2491 26 Sep 15:58:27 16:07:10 70° 280° (W) 16:16:01 435.465 / 435.565
PCSat 26 Sep 15:58:54 16:02:04 16° 256° (WSW) 16:05:12 145.827
Cosmos 2504 26 Sep 15:59:26 16:06:53 87° 265° (W) 16:14:50 435.465 / 435.565
MOZHAYETS 4 26 Sep 15:59:41 16:03:31 25° 95° (E) 16:07:19
YUBILEINY 26 Sep 16:06:14 16:13:46 35° 275° (W) 16:21:17 435.215
BRITE-PL 26 Sep 16:23:57 16:27:20 16° 63° (ENE) 16:30:40 437.365/2234.400
KKS-1 26 Sep 16:35:40 16:39:46 36° 98° (E) 16:43:49 437.445
NOAA 15 26 Sep 16:44:51 16:46:37 12° 58° (ENE) 16:48:23 137.62
ITAMSAT 1 26 Sep 16:46:54 16:48:53 12° 270° (W) 16:50:51 435.822/435.867
SO-50 26 Sep 16:52:15 16:56:39 34° 310° (NW) 17:00:59 436.795
AIST 1 26 Sep 16:52:55 16:57:14 73° 83° (E) 17:01:28
HORYU 2 26 Sep 16:53:02 16:57:11 42° 71° (ENE) 17:01:21 437.375
Cubesat XI-IV 26 Sep 16:55:41 16:57:27 12° 59° (ENE) 16:59:14 437.490
CUTE-I 26 Sep 16:56:10 16:58:05 12° 59° (ENE) 17:00:00 437.470
O/OREOS (USA 219) 26 Sep 16:58:07 17:02:00 26° 60° (ENE) 17:05:51 437.305
ITUPSAT 1 26 Sep 17:09:20 17:11:38 13° 298° (WNW) 17:13:57 437.325
STARS 26 Sep 17:13:17 17:17:28 44° 99° (E) 17:21:38 437.465
CUBESAT XI-V 26 Sep 17:15:41 17:19:12 21° 93° (E) 17:22:41 437.345
NOAA 18 26 Sep 17:22:59 17:26:40 19° 62° (ENE) 17:30:21 137.9125
PHONESAT 2.4 26 Sep 17:24:36 17:26:07 13° 212° (SSW) 17:27:38 2401.200-2431.200
MOZHAYETS 4 26 Sep 17:36:34 17:40:39 31° 290° (WNW) 17:44:44
Cosmos 2504 26 Sep 17:55:47 17:59:11 14° 281° (W) 18:02:42 435.465 / 435.565
AO-7 26 Sep 17:56:06 17:59:47 13° 271° (W) 18:03:28 29.400- 29.500
GOMX 1 26 Sep 17:56:42 18:01:54 49° 73° (ENE) 18:06:55 467.674
BRITE-PL 26 Sep 17:59:27 18:05:08 75° 259° (W) 18:10:47 437.365/2234.400
Cosmos 2491 26 Sep 18:02:01 18:05:50 13° 302° (WNW) 18:09:41 435.465 / 435.565
CUSAT 1 26 Sep 18:05:59 18:08:39 13° 76° (ENE) 18:11:32 437.405
KKS-1 26 Sep 18:12:49 18:16:04 20° 294° (WNW) 18:19:18 437.445
NOAA 15 26 Sep 18:20:16 18:25:34 88° 76° (ENE) 18:30:56 137.62
DOVE 4 26 Sep 18:25:49 18:30:32 40° 72° (ENE) 18:35:00 437.250
LilacSat-2 26 Sep 18:27:37 18:31:22 86° 78° (ENE) 18:35:09 437.200
HORYU 2 26 Sep 18:31:07 18:33:56 16° 267° (W) 18:36:43 437.375
Cubesat XI-IV 26 Sep 18:31:24 18:36:43 88° 76° (ENE) 18:42:04 437.490
CUTE-I 26 Sep 18:32:01 18:37:19 90° 233° (SW) 18:42:40 437.470
HO-68 26 Sep 18:32:28 18:37:36 22° 58° (ENE) 18:42:44 435.675
GONETS M04 26 Sep 18:32:35 18:37:52 17° 61° (ENE) 18:43:07
O/OREOS (USA 219) 26 Sep 18:37:22 18:41:23 30° 256° (WSW) 18:45:22 437.305
STARS 26 Sep 18:50:43 18:53:27 17° 295° (WNW) 18:56:12 437.465
CUBESAT XI-V 26 Sep 18:52:21 18:56:40 38° 289° (WNW) 19:00:58 437.345
CUTE 1.7 + AOD 2 26 Sep 18:54:19 18:56:15 13° 64° (ENE) 18:58:11 437.475
CANX-2 26 Sep 18:54:42 18:57:09 15° 65° (ENE) 18:59:36 2200.000
NOAA 18 26 Sep 19:01:26 19:06:50 60° 258° (WSW) 19:12:14 137.9125
Cosmos 2499 26 Sep 19:14:41 19:20:40 25° 70° (ENE) 19:26:56 435.465 / 435.565
DANDE 26 Sep 19:21:54 19:25:20 18° 80° (E) 19:29:23 436.750
STRAND 1 26 Sep 19:22:09 19:25:58 21° 93° (E) 19:29:45 437.568
AAUSAT CUBESAT 2 26 Sep 19:26:15 19:26:55 10° 63° (ENE) 19:27:34 437.432
CUBEBUG 2 26 Sep 19:30:57 19:32:28 12° 64° (ENE) 19:33:58 437.445
GOMX 1 26 Sep 19:36:07 19:40:07 21° 267° (W) 19:44:03 467.674
CUSAT 1 26 Sep 19:43:07 19:49:05 84° 96° (E) 19:56:34 437.405
CINEMA 3 26 Sep 19:47:52 19:52:23 74° 76° (ENE) 19:56:44 145.822/145.860
UWE-3 26 Sep 19:51:27 19:53:21 13° 65° (ENE) 19:55:15 435.000/436.395/437.385
RS-15 26 Sep 19:52:04 20:02:58 52° 110° (ESE) 20:14:25 29.354- 29.394
DOVE 4 26 Sep 20:04:24 20:08:17 22° 266° (W) 20:12:02 437.250
NOAA 15 26 Sep 20:05:11 20:06:00 10° 271° (W) 20:06:48 137.62
COMPASS 1 26 Sep 20:05:35 20:09:26 37° 72° (ENE) 20:13:18 437.405
Cubesat XI-IV 26 Sep 20:16:59 20:17:27 10° 271° (W) 20:17:54 437.490
HO-68 26 Sep 20:17:25 20:24:35 75° 256° (WSW) 20:31:46 435.675
ZACube-1 26 Sep 20:22:45 20:25:35 18° 67° (ENE) 20:28:25 437.345
Oscar 11 26 Sep 20:23:04 20:26:05 19° 67° (ENE) 20:29:07 145.826/435.025
GONETS M04 26 Sep 20:27:14 20:36:07 84° 83° (E) 20:44:53
CUTE 1.7 + AOD 2 26 Sep 20:27:28 20:31:36 55° 260° (W) 20:35:47 437.475
CANX-2 26 Sep 20:28:34 20:32:36 45° 261° (W) 20:36:42 2200.000
SEEDS 26 Sep 20:31:16 20:35:26 73° 259° (WSW) 20:39:41 437.485
AO-85 26 Sep 20:52:31 20:57:01 29° 113° (ESE) 21:01:19 145.980
PRISM 26 Sep 20:52:54 20:55:00 14° 92° (E) 20:57:05 437.425
ISS 26 Sep 20:55:09 20:58:20 60° 139° (SE) 21:01:34 145.825
DELFI C3 26 Sep 20:55:26 20:57:51 16° 66° (ENE) 21:00:17 145.870
AAUSAT CUBESAT 2 26 Sep 20:57:40 21:01:47 68° 259° (W) 21:05:58 437.432
STRAND 1 26 Sep 21:00:25 21:05:20 45° 289° (WNW) 21:10:13 437.568
DANDE 26 Sep 21:02:20 21:07:09 54° 285° (WNW) 21:13:35 436.750
CUBEBUG 2 26 Sep 21:04:27 21:08:36 58° 259° (W) 21:12:43 437.445
Cosmos 2499 26 Sep 21:06:47 21:14:13 63° 267° (W) 21:22:12 435.465 / 435.565
FUNcube-1 26 Sep 21:16:05 21:20:11 69° 75° (ENE) 21:24:18 145.935
UWE-3 26 Sep 21:25:19 21:29:23 51° 260° (W) 21:33:26 435.000/436.395/437.385
CUSAT 1 26 Sep 21:28:01 21:32:18 18° 300° (WNW) 21:37:05 437.405
COMPASS 1 26 Sep 21:42:23 21:45:06 17° 267° (W) 21:47:51 437.405
ZACube-1 26 Sep 21:57:50 22:01:37 34° 263° (W) 22:05:25 437.345
Oscar 11 26 Sep 21:57:58 22:01:56 37° 262° (W) 22:05:57 145.826/435.025
RS-15 26 Sep 22:04:13 22:15:29 51° 313° (NW) 22:27:22 29.354- 29.394
HO-68 26 Sep 22:11:30 22:13:21 11° 273° (W) 22:15:13 435.675
GONETS M04 26 Sep 22:26:11 22:31:44 19° 282° (WNW) 22:37:15
PRISM 26 Sep 22:26:34 22:30:32 45° 288° (WNW) 22:34:26 437.425
HUMSAT D 26 Sep 22:28:20 22:32:24 87° 257° (WSW) 22:36:32 437.325/437.525
DELFI C3 26 Sep 22:28:37 22:32:20 38° 262° (W) 22:36:08 145.870
UNISAT 6 26 Sep 22:31:02 22:34:37 24° 95° (E) 22:38:14 437.425
ISS 26 Sep 22:32:31 22:35:04 21° 337° (NNW) 22:37:38 145.825
AO-85 26 Sep 22:32:35 22:37:23 37° 308° (NW) 22:41:55 145.980
ESTCUBE 1 26 Sep 22:49:48 22:53:32 26° 68° (ENE) 22:57:16 437.505/2401.250
VELOX 1 26 Sep 22:55:33 22:58:03 15° 64° (ENE) 23:00:34 145.980
CUBEBUG 1 26 Sep 23:01:50 23:05:12 22° 67° (ENE) 23:08:35 437.445
ANTELSAT 26 Sep 23:05:54 23:10:15 58° 101° (E) 23:14:40 437.575/2403.000
AUBIESAT-1 26 Sep 23:21:02 23:24:13 22° 65° (ENE) 23:27:14 437.475
TIGRISAT 26 Sep 23:26:45 23:31:09 87° 282° (WNW) 23:35:38 435.000
SO-50 26 Sep 23:44:13 23:47:53 23° 46° (NE) 23:51:27 436.795
AISAT 26 Sep 23:45:59 23:50:19 53° 73° (ENE) 23:54:40 437.250
SPROUT 26 Sep 23:47:47 23:51:23 27° 70° (ENE) 23:55:01 437.525
M-CUBED/EXP-1 PRIME 26 Sep 23:56:17 00:00:30 74° 71° (ENE) 00:04:24 437.505
DUCHIFAT 1 26 Sep 23:58:32 00:01:55 23° 95° (E) 00:05:17 145.980
QB50P1 26 Sep 23:59:13 00:02:50 27° 96° (E) 00:06:26 145.935-145.965
UKube-1 26 Sep 23:59:17 00:03:12 34° 70° (ENE) 00:07:06 .
UNISAT 6 27 Sep 00:07:29 00:11:18 30° 290° (WNW) 00:15:11 437.425
BUGSAT 1 27 Sep 00:07:47 00:08:36 11° 91° (E) 00:09:26 437.445
ISS 27 Sep 00:11:51 00:12:33 10° 357° (N) 00:13:15 145.825
POPSAT HIP 1 27 Sep 00:12:23 00:16:19 38° 98° (E) 00:20:14 437.405
50 SAT 27 Sep 00:17:55 00:21:31 66° 258° (WSW) 00:25:10 437.505
Cosmos 2491 27 Sep 00:18:40 00:19:33 10° 55° (NE) 00:20:26 435.465 / 435.565
RS-15 27 Sep 00:23:07 00:31:59 23° 345° (NNW) 00:41:05 29.354- 29.394
DX 1 27 Sep 00:25:13 00:29:36 88° 83° (E) 00:34:01 434.975-435.025
ESTCUBE 1 27 Sep 00:26:17 00:30:13 29° 264° (W) 00:34:10 437.505/2401.250
NANOSAT C BR1 27 Sep 00:29:21 00:33:30 58° 101° (E) 00:37:37 145.865
VELOX 1 27 Sep 00:29:43 00:34:04 52° 260° (W) 00:38:26 145.980
JAS-2 27 Sep 00:31:04 00:38:45 54° 98° (E) 00:46:03 435.910
CUBEBUG 1 27 Sep 00:37:16 00:41:17 33° 263° (W) 00:45:17 437.445
ANTELSAT 27 Sep 00:44:22 00:46:30 13° 296° (WNW) 00:48:38 437.575/2403.000
BEESAT 2 27 Sep 00:51:05 00:52:45 12° 109° (ESE) 00:54:26 435.950
QB50P2 27 Sep 00:51:43 00:55:54 66° 286° (WNW) 01:00:05 145.880/145.840
POLYITAN 1 27 Sep 00:53:56 00:58:08 66° 284° (WNW) 01:02:18 437.675
AUBIESAT-1 27 Sep 00:54:59 00:58:33 27° 257° (WSW) 01:01:54 437.475
SRMSAT 27 Sep 01:08:44 01:09:07 10° 179° (S) 01:09:29 437.500
TISAT 1 27 Sep 01:11:33 01:15:34 46° 73° (ENE) 01:19:35 437.305
SWISSCUBE 27 Sep 01:14:34 01:16:33 13° 61° (ENE) 01:18:33 437.505
SPROUT 27 Sep 01:23:49 01:27:16 24° 265° (W) 01:30:45 437.525
SO-50 27 Sep 01:24:13 01:28:31 42° 245° (WSW) 01:32:43 436.795
AISAT 27 Sep 01:24:55 01:27:05 13° 269° (W) 01:29:16 437.250
BEESAT 27 Sep 01:26:53 01:29:34 15° 63° (ENE) 01:32:15 436.000
BEESAT 3 27 Sep 01:32:46 01:36:39 82° 121° (ESE) 01:40:36 437.485
DUCHIFAT 1 27 Sep 01:34:01 01:37:33 27° 291° (WNW) 01:41:05 145.980
QB50P1 27 Sep 01:35:07 01:38:28 23° 292° (WNW) 01:41:49 145.935-145.965
UKube-1 27 Sep 01:36:06 01:39:17 20° 265° (W) 01:42:29 .
Gurwin Techsat 1B 27 Sep 01:39:28 01:41:04 11° 89° (E) 01:42:40 435.225
BUGSAT 1 27 Sep 01:40:22 01:44:17 54° 286° (WNW) 01:48:13 437.445
ISS 27 Sep 01:48:08 01:50:09 15° 17° (NNE) 01:52:11 145.825
POPSAT HIP 1 27 Sep 01:49:00 01:51:48 17° 294° (WNW) 01:54:35 437.405
NANOSAT C BR1 27 Sep 02:07:05 02:08:43 12° 296° (WNW) 02:10:19 145.865
Cosmos 2491 27 Sep 02:09:53 02:18:37 58° 78° (ENE) 02:27:14 435.465 / 435.565
JAS-2 27 Sep 02:16:31 02:23:20 34° 296° (WNW) 02:29:57 435.910
BEESAT 2 27 Sep 02:26:14 02:30:05 52° 305° (NW) 02:33:59 435.950
Oscar 19 27 Sep 02:26:26 02:31:36 73° 102° (ESE) 02:36:43 437.125/150
ITUPSAT 1 27 Sep 02:35:18 02:40:02 72° 74° (ENE) 02:44:49 437.325
RS-15 27 Sep 02:41:05 02:50:40 25° 21° (NNE) 03:00:13 29.354- 29.394
SWISSCUBE 27 Sep 02:48:58 02:53:42 73° 258° (WSW) 02:58:29 437.505
TISAT 1 27 Sep 02:49:19 02:51:27 14° 268° (W) 02:53:34 437.305
Cosmos 2504 27 Sep 02:49:47 02:52:07 12° 78° (ENE) 02:54:26 435.465 / 435.565
MOZHAYETS 4 27 Sep 03:01:04 03:04:33 22° 67° (ENE) 03:08:04
BEESAT 27 Sep 03:02:09 03:06:50 59° 259° (W) 03:11:33 436.000
AIST 2 27 Sep 03:04:57 03:06:34 12° 108° (ESE) 03:08:09 435.215
YUBILEINY 27 Sep 03:08:20 03:16:53 59° 91° (E) 03:25:24 435.215
BEESAT 3 27 Sep 03:13:32 03:14:51 11° 319° (NW) 03:16:11 437.485
Gurwin Techsat 1B 27 Sep 03:16:16 03:21:37 82° 285° (WNW) 03:26:55 435.225
ITAMSAT 1 27 Sep 03:17:50 03:22:18 28° 96° (E) 03:26:44 435.822/435.867
ISS 27 Sep 03:23:53 03:27:09 64° 36° (NE) 03:30:26 145.825
KKS-1 27 Sep 03:32:55 03:36:49 31° 69° (ENE) 03:40:43 437.445
AO-7 27 Sep 04:00:22 04:07:57 38° 99° (E) 04:15:29 29.400- 29.500
Cosmos 2491 27 Sep 04:07:36 04:14:51 30° 277° (W) 04:22:04 435.465 / 435.565
Oscar 19 27 Sep 04:07:40 04:10:17 14° 299° (WNW) 04:12:52 437.125/150
STARS 27 Sep 04:09:02 04:13:01 35° 70° (ENE) 04:17:01 437.465
ITUPSAT 1 27 Sep 04:17:04 04:18:21 11° 270° (W) 04:19:39 437.325
CUBESAT XI-V 27 Sep 04:18:26 04:21:46 20° 66° (ENE) 04:25:06 437.345
Cosmos 2504 27 Sep 04:36:49 04:44:18 82° 95° (E) 04:51:30 435.465 / 435.565
MOZHAYETS 4 27 Sep 04:37:19 04:41:29 35° 263° (W) 04:45:42
CUSAT 1 27 Sep 04:39:51 04:42:32 12° 55° (NE) 04:45:08 437.405
AIST 2 27 Sep 04:40:28 04:44:30 58° 304° (NW) 04:48:36 435.215
RS-15 27 Sep 04:54:16 05:06:33 61° 51° (NE) 05:18:31 29.354- 29.394
PCSat 27 Sep 04:54:21 04:59:44 74° 116° (ESE) 05:05:10 145.827
ITAMSAT 1 27 Sep 04:57:04 05:01:45 34° 292° (WNW) 05:06:26 435.822/435.867
Gurwin Techsat 1B 27 Sep 04:59:31 05:00:41 11° 302° (WNW) 05:01:52 435.225
ISS 27 Sep 05:01:43 05:03:16 13° 231° (SW) 05:04:49 145.825
YUBILEINY 27 Sep 05:06:42 05:14:08 30° 290° (WNW) 05:21:35 435.215
KKS-1 27 Sep 05:09:48 05:13:21 23° 265° (W) 05:16:56 437.445
AIST 1 27 Sep 05:21:03 05:25:13 44° 93° (E) 05:29:23
AO-85 27 Sep 05:25:35 05:28:28 18° 44° (NE) 05:31:14 145.980
STARS 27 Sep 05:46:16 05:49:27 19° 266° (W) 05:52:39 437.465
AO-7 27 Sep 05:52:59 06:00:47 48° 297° (WNW) 06:08:35 29.400- 29.500
CUBESAT XI-V 27 Sep 05:54:21 05:58:48 42° 262° (W) 06:03:18 437.345
DANDE 27 Sep 05:58:42 06:05:13 24° 65° (ENE) 06:11:30 436.750
GOMX 1 27 Sep 06:02:01 06:03:40 12° 89° (E) 06:05:18 467.674
BRITE-PL 27 Sep 06:06:20 06:10:48 37° 96° (E) 06:14:57 437.365/2234.400
CUSAT 1 27 Sep 06:18:39 06:26:24 63° 77° (ENE) 06:32:52 437.405
HORYU 2 27 Sep 06:20:42 06:25:10 84° 284° (WNW) 06:29:38 437.375
Cosmos 2504 27 Sep 06:34:09 06:38:31 16° 294° (WNW) 06:42:50 435.465 / 435.565
NOAA 15 27 Sep 06:36:35 06:41:26 35° 98° (E) 06:46:12 137.62
STRAND 1 27 Sep 06:37:10 06:41:26 28° 67° (ENE) 06:45:42 437.568
PCSat 27 Sep 06:40:01 06:43:43 18° 315° (NW) 06:47:26 145.827
Cubesat XI-IV 27 Sep 06:49:39 06:54:37 38° 98° (E) 06:59:34 437.490
CUTE-I 27 Sep 06:50:03 06:55:03 38° 98° (E) 07:00:01 437.470
AIST 1 27 Sep 07:00:29 07:03:02 15° 289° (WNW) 07:05:36
AO-85 27 Sep 07:05:15 07:09:09 44° 244° (WSW) 07:12:51 145.980
RS-15 27 Sep 07:07:26 07:18:35 42° 253° (WSW) 07:29:29 29.354- 29.394
O/OREOS (USA 219) 27 Sep 07:09:23 07:13:26 33° 104° (ESE) 07:17:33 437.305
NOAA 18 27 Sep 07:24:09 07:29:35 62° 102° (ESE) 07:35:00 137.9125
GONETS M04 27 Sep 07:34:02 07:39:43 19° 78° (ENE) 07:45:24
LilacSat-2 27 Sep 07:35:49 07:39:34 54° 286° (WNW) 07:43:19 437.200
GOMX 1 27 Sep 07:37:53 07:42:12 53° 287° (WNW) 07:46:18 467.674
DANDE 27 Sep 07:40:26 07:48:52 78° 263° (W) 07:56:40 436.750
CINEMA 3 27 Sep 07:44:13 07:46:55 17° 93° (E) 07:49:38 145.822/145.860
BRITE-PL 27 Sep 07:45:24 07:49:00 21° 295° (WNW) 07:52:23 437.365/2234.400
HO-68 27 Sep 07:47:08 07:52:28 22° 93° (E) 07:57:46 435.675
Cosmos 2499 27 Sep 07:53:13 07:57:32 17° 81° (E) 08:01:47 435.465 / 435.565
CUSAT 1 27 Sep 08:01:48 08:07:36 24° 278° (W) 08:12:45 437.405
DOVE 4 27 Sep 08:03:02 08:07:13 68° 284° (WNW) 08:11:19 437.250
CUTE 1.7 + AOD 2 27 Sep 08:13:27 08:17:05 26° 95° (E) 08:20:41 437.475
CANX-2 27 Sep 08:14:22 08:18:13 31° 96° (E) 08:22:03 2200.000
STRAND 1 27 Sep 08:15:52 08:20:27 34° 263° (W) 08:25:05 437.568
NOAA 15 27 Sep 08:16:33 08:21:03 29° 293° (WNW) 08:25:30 137.62
SEEDS 27 Sep 08:16:42 08:19:49 20° 93° (E) 08:22:56 437.485
Cubesat XI-IV 27 Sep 08:30:04 08:34:30 27° 294° (WNW) 08:38:56 437.490
CUTE-I 27 Sep 08:30:29 08:34:53 27° 294° (WNW) 08:39:17 437.470
AAUSAT CUBESAT 2 27 Sep 08:41:28 08:44:32 19° 94° (E) 08:47:35 437.432
O/OREOS (USA 219) 27 Sep 08:49:12 08:52:53 24° 301° (WNW) 08:56:37 437.305
CUBEBUG 2 27 Sep 08:55:52 08:59:36 28° 96° (E) 09:03:24 437.445
FUNcube-1 27 Sep 09:05:59 09:08:19 14° 92° (E) 09:10:41 145.935
NOAA 18 27 Sep 09:06:07 09:09:43 18° 299° (WNW) 09:13:18 137.9125
PRISM 27 Sep 09:14:27 09:18:37 74° 259° (W) 09:22:48 437.425
UWE-3 27 Sep 09:15:24 09:19:15 31° 97° (E) 09:23:11 435.000/436.395/437.385
CINEMA 3 27 Sep 09:20:21 09:24:12 37° 288° (WNW) 09:28:06 145.822/145.860
COMPASS 1 27 Sep 09:24:08 09:28:23 81° 103° (ESE) 09:32:35 437.405
DANDE 27 Sep 09:25:50 09:30:16 16° 282° (WNW) 09:34:35 436.750
GONETS M04 27 Sep 09:26:29 09:35:21 83° 278° (W) 09:44:16
UNISAT 6 27 Sep 09:29:48 09:32:48 19° 67° (ENE) 09:35:48 437.425
HO-68 27 Sep 09:33:36 09:40:41 66° 289° (WNW) 09:47:44 435.675
Cosmos 2499 27 Sep 09:42:36 09:49:47 73° 278° (W) 09:56:51 435.465 / 435.565
Oscar 11 27 Sep 09:45:36 09:49:44 40° 98° (E) 09:53:50 145.826/435.025
ZACube-1 27 Sep 09:46:09 09:50:17 43° 99° (E) 09:54:29 437.345
CUTE 1.7 + AOD 2 27 Sep 09:49:16 09:52:49 25° 291° (WNW) 09:56:21 437.475
CANX-2 27 Sep 09:50:35 09:53:53 22° 292° (WNW) 09:57:11 2200.000
BEESAT 3 27 Sep 09:50:43 09:54:24 35° 53° (NE) 09:58:04 437.485
SEEDS 27 Sep 09:51:44 09:55:34 33° 289° (WNW) 09:59:23 437.485
ANTELSAT 27 Sep 10:03:59 10:08:02 44° 73° (ENE) 10:12:06 437.575/2403.000
DELFI C3 27 Sep 10:06:58 10:10:23 26° 96° (E) 10:13:46 145.870
HUMSAT D 27 Sep 10:13:29 10:16:09 16° 93° (E) 10:18:50 437.325/437.525
AAUSAT CUBESAT 2 27 Sep 10:16:18 10:20:03 32° 289° (WNW) 10:23:47 437.432
TIGRISAT 27 Sep 10:24:29 10:28:44 72° 76° (ENE) 10:32:59 435.000
CUBEBUG 2 27 Sep 10:32:41 10:36:06 24° 291° (WNW) 10:39:35 437.445
FUNcube-1 27 Sep 10:40:37 10:44:47 48° 286° (WNW) 10:49:02 145.935
JAS-2 27 Sep 10:43:26 10:48:15 22° 58° (ENE) 10:53:27 435.910
BEESAT 2 27 Sep 10:44:42 10:48:44 66° 58° (ENE) 10:52:42 435.950
DUCHIFAT 1 27 Sep 10:50:22 10:52:59 16° 66° (ENE) 10:55:36 145.980
QB50P1 27 Sep 10:51:22 10:54:23 19° 67° (ENE) 10:57:23 145.935-145.965
UWE-3 27 Sep 10:52:12 10:55:33 22° 291° (WNW) 10:58:56 435.000/436.395/437.385
POPSAT HIP 1 27 Sep 11:04:16 11:07:45 26° 69° (ENE) 11:11:15 437.405
UNISAT 6 27 Sep 11:05:20 11:09:15 35° 262° (W) 11:13:12 437.425
NANOSAT C BR1 27 Sep 11:20:33 11:24:26 37° 72° (ENE) 11:28:19 145.865
Oscar 11 27 Sep 11:22:37 11:25:32 18° 294° (WNW) 11:28:26 145.826/435.025
ZACube-1 27 Sep 11:23:29 11:26:14 17° 294° (WNW) 11:29:02 437.345
HO-68 27 Sep 11:24:23 11:27:03 12° 309° (NW) 11:29:43 435.675
PHONESAT 2.4 27 Sep 11:24:26 11:27:11 37° 158° (SSE) 11:29:56 2401.200-2431.200
GONETS M04 27 Sep 11:28:20 11:33:36 17° 299° (WNW) 11:38:54
BEESAT 3 27 Sep 11:28:58 11:31:48 19° 249° (WSW) 11:34:38 437.485
AISAT 27 Sep 11:39:58 11:40:36 10° 90° (E) 11:41:14 437.250
DELFI C3 27 Sep 11:41:56 11:45:04 22° 291° (WNW) 11:48:11 145.870
ANTELSAT 27 Sep 11:42:35 11:44:58 15° 268° (W) 11:47:22 437.575/2403.000
Cosmos 2499 27 Sep 11:42:53 11:44:15 11° 299° (WNW) 11:45:36 435.465 / 435.565
QB50P2 27 Sep 11:43:03 11:47:16 81° 75° (ENE) 11:51:29 145.880/145.840
POLYITAN 1 27 Sep 11:45:17 11:49:29 81° 76° (ENE) 11:53:42 437.675
HUMSAT D 27 Sep 11:47:56 11:51:55 40° 288° (WNW) 11:55:56 437.325/437.525
Oscar 19 27 Sep 12:06:50 12:08:54 12° 60° (ENE) 12:10:57 437.125/150
DX 1 27 Sep 12:15:30 12:18:09 16° 93° (E) 12:20:47 434.975-435.025
ESTCUBE 1 27 Sep 12:18:47 12:23:18 61° 101° (ESE) 12:27:45 437.505/2401.250
VELOX 1 27 Sep 12:20:49 12:24:41 30° 97° (E) 12:28:31 145.980
DUCHIFAT 1 27 Sep 12:24:24 12:28:20 40° 261° (W) 12:32:18 145.980
JAS-2 27 Sep 12:26:05 12:32:24 71° 259° (WSW) 12:39:39 435.910
QB50P1 27 Sep 12:26:05 12:29:55 34° 262° (W) 12:33:45 145.935-145.965
CUBEBUG 1 27 Sep 12:26:14 12:30:24 45° 99° (E) 12:34:32 437.445
BUGSAT 1 27 Sep 12:28:42 12:32:49 88° 81° (E) 12:36:55 437.445
AUBIESAT-1 27 Sep 12:34:58 12:36:40 13° 99° (E) 12:38:23 437.475
POPSAT HIP 1 27 Sep 12:40:01 12:43:28 24° 264° (W) 12:46:55 437.405
NANOSAT C BR1 27 Sep 12:57:35 13:00:17 17° 267° (W) 13:03:00 145.865
Gurwin Techsat 1B 27 Sep 12:58:47 13:02:23 19° 63° (ENE) 13:05:59 435.225
PHONESAT 2.4 27 Sep 13:00:16 13:03:13 79° 354° (N) 13:06:10 2401.200-2431.200
AIST 2 27 Sep 13:02:22 13:06:34 68° 57° (ENE) 13:10:44 435.215
SPROUT 27 Sep 13:09:26 13:13:38 58° 101° (E) 13:17:49 437.525
M-CUBED/EXP-1 PRIME 27 Sep 13:10:38 13:13:51 54° 106° (ESE) 13:17:03 437.505
AISAT 27 Sep 13:13:08 13:17:30 66° 285° (WNW) 13:21:50 437.250
AO-7 27 Sep 13:14:04 13:15:23 10° 43° (NE) 13:16:40 29.400- 29.500
50 SAT 27 Sep 13:19:48 13:23:21 47° 286° (WNW) 13:26:51 437.505
YUBILEINY 27 Sep 13:20:06 13:27:14 27° 68° (ENE) 13:34:18 435.215
Cosmos 2491 27 Sep 13:20:54 13:23:06 11° 73° (ENE) 13:25:17 435.465 / 435.565
UKube-1 27 Sep 13:22:31 13:26:50 70° 103° (ESE) 13:31:06 .
Oscar 19 27 Sep 13:42:16 13:47:29 85° 259° (W) 13:52:42 437.125/150
PCSat 27 Sep 13:43:07 13:48:24 49° 57° (ENE) 13:53:37 145.827
DX 1 27 Sep 13:50:25 13:54:32 43° 288° (WNW) 13:58:37 434.975-435.025
ESTCUBE 1 27 Sep 13:57:23 13:59:33 13° 297° (WNW) 14:01:42 437.505/2401.250
VELOX 1 27 Sep 13:57:29 14:01:00 24° 292° (WNW) 14:04:30 145.980
CUBEBUG 1 27 Sep 14:03:41 14:06:18 16° 295° (WNW) 14:08:54 437.445
AUBIESAT-1 27 Sep 14:08:21 14:11:14 28° 294° (WNW) 14:14:06 437.475
Cosmos 2504 27 Sep 14:29:52 14:35:59 27° 71° (ENE) 14:42:22 435.465 / 435.565
TISAT 1 27 Sep 14:31:25 14:35:36 85° 288° (WNW) 14:39:46 437.305
ITAMSAT 1 27 Sep 14:34:53 14:39:40 40° 69° (ENE) 14:44:28 435.822/435.867
PHONESAT 2.4 27 Sep 14:36:26 14:39:23 89° 213° (SSW) 14:42:22 2401.200-2431.200
Gurwin Techsat 1B 27 Sep 14:36:39 14:41:51 56° 259° (W) 14:47:06 435.225
ITUPSAT 1 27 Sep 14:37:29 14:40:58 20° 94° (E) 14:44:26 437.325
AIST 2 27 Sep 14:43:33 14:44:27 11° 253° (WSW) 14:45:21 435.215
SPROUT 27 Sep 14:47:20 14:49:03 12° 296° (WNW) 14:50:47 437.525
